Weather History for KGRD - December, 2012

Change the Weather History Date:

Thursday, December 13, 2012

  Actual Average (KAND) Record (KAND)
Temperature  
Mean Temperature 42 °F -  
Max Temperature 53 °F 56 °F 73 °F (1956)
Min Temperature 32 °F 35 °F 2 °F (1962)
Degree Days  
Heating Degree Days 22    
Moisture  
Dew Point 34 °F    
Average Humidity 73    
Maximum Humidity 96    
Minimum Humidity 45    
Precipitation  
Precipitation 0.00 in - - ()
Sea Level Pressure  
Sea Level Pressure 30.34 in    
Wind  
Wind Speed 7 mph (NNE)    
Max Wind Speed 13 mph    
Max Gust Speed 18 mph    
Visibility 10 miles    
Events      
Averages and records for this station are not official NWS values.
T = Trace of Precipitation, MM = Missing Value Source: NWS Daily Summary

Daily Weather History Graph

Daily Weather History Graph

Search for Another Location

Airport or City:

Trip Planner

Search our weather history database for the weather conditions in past years. The results will help you decide how hot, cold, wet, or windy it might be!

Date:

Astronomy

Dec. 13, 2012 Rise Set
Actual Time 7:26 AM EST 5:19 PM EST
Civil Twilight 6:58 AM EST 5:47 PM EST
Nautical Twilight 6:27 AM EST 6:19 PM EST
Astronomical Twilight 5:56 AM EST 6:49 PM EST
Moon 7:34 AM EST (12/13) 5:59 PM EST (12/13)
Length of Visible Light 10h 49m
Length of Day
9h 53m
New Moon, 0% of the Moon is Illuminated
Dec 13
New Moon
Dec 20
First Quarter
Dec 28
Full
Jan 4
Last Quarter
Jan 11
New

Hourly Weather History & Observations

Time (EST) Temp. Windchill Dew Point Humidity Pressure Visibility Wind Dir Wind Speed Gust Speed Precip Events Conditions
12:04 AM 41.0 °F 37.1 °F 39.2 °F 93% 30.29 in 10.0 mi NE 5.8 mph - N/A   Overcast
12:56 AM 41.0 °F 35.8 °F 39.0 °F 93% 30.27 in 10.0 mi NE 8.1 mph - 0.00 in   Overcast
1:56 AM 41.0 °F 36.4 °F 37.9 °F 89% 30.28 in 10.0 mi NNE 6.9 mph - N/A   Overcast
2:56 AM 41.0 °F 37.1 °F 37.9 °F 89% 30.30 in 10.0 mi North 5.8 mph - N/A   Overcast
3:56 AM 41.0 °F 36.4 °F 37.9 °F 89% 30.29 in 10.0 mi NNE 6.9 mph - N/A   Overcast
4:56 AM 41.0 °F 38.0 °F 37.9 °F 89% 30.30 in 10.0 mi North 4.6 mph - N/A   Overcast
5:56 AM 42.1 °F 39.2 °F 37.9 °F 85% 30.32 in 10.0 mi North 4.6 mph - N/A   Overcast
6:56 AM 43.0 °F 38.2 °F 34.0 °F 71% 30.34 in 10.0 mi NNE 8.1 mph - N/A   Overcast
7:56 AM 43.0 °F 37.2 °F 33.1 °F 68% 30.36 in 10.0 mi NE 10.4 mph - N/A   Overcast
8:12 AM 42.8 °F 36.6 °F 32.0 °F 66% 30.35 in 10.0 mi NNE 11.5 mph 18.4 mph N/A   Overcast
9:05 AM 44.6 °F 38.8 °F 32.0 °F 61% 30.37 in 10.0 mi NE 11.5 mph - N/A   Overcast
9:51 AM 44.6 °F 38.4 °F 32.0 °F 61% 30.38 in 10.0 mi NE 12.7 mph 17.3 mph N/A   Overcast
9:56 AM 45.0 °F 39.7 °F 30.9 °F 58% 30.38 in 10.0 mi NE 10.4 mph 17.3 mph N/A   Overcast
10:56 AM 46.0 °F 41.9 °F 32.0 °F 58% 30.40 in 10.0 mi NE 8.1 mph 18.4 mph N/A   Overcast
11:16 AM 46.4 °F 42.4 °F 33.8 °F 62% 30.39 in 10.0 mi ENE 8.1 mph - N/A   Overcast
11:56 AM 46.0 °F 41.9 °F 32.0 °F 58% 30.39 in 10.0 mi ENE 8.1 mph - N/A   Unknown
12:56 PM 48.0 °F - 33.1 °F 56% 30.36 in 10.0 mi NE 5.8 mph - N/A   Overcast
1:56 PM 51.1 °F - 33.1 °F 50% 30.34 in 10.0 mi NNE 6.9 mph - N/A   Clear
2:56 PM 53.1 °F - 33.1 °F 47% 30.33 in 10.0 mi North 8.1 mph - N/A   Clear
3:56 PM 53.1 °F - 32.0 °F 45% 30.33 in 10.0 mi NNE 5.8 mph - N/A   Clear
4:56 PM 51.1 °F - 32.0 °F 48% 30.34 in 10.0 mi NE 3.5 mph - N/A   Clear
7:56 PM 37.0 °F - 33.1 °F 86% 30.35 in 10.0 mi Calm Calm - N/A   Clear
8:56 PM 35.1 °F - 32.0 °F 89% 30.36 in 10.0 mi Calm Calm - N/A   Clear
9:56 PM 33.1 °F 30.0 °F 30.9 °F 92% 30.37 in 10.0 mi North 3.5 mph - N/A   Clear
10:56 PM 32.0 °F - 30.9 °F 96% 30.38 in 10.0 mi Calm Calm - N/A   Clear
11:56 PM 32.0 °F - 30.0 °F 92% 30.38 in 10.0 mi Calm Calm - N/A   Clear